Список реплеев

Разместил:  Сортировать по: дате   Форум:
(достаточно первых букв) кол-ву скачиваний Искать в подкатегориях
Карта: Игрок (>3 букв):

ФорумФайлДобавленоРазместилСкачаноРазмер, КбТема
Реплеи патча 1.04 1v1 2013.07.20 15.27 ""ONZAjr"" vs [SF]GanG.rep  13.09.13SaNDmaN307109.35Пост
Реплеи патча 1.04 1v1 2013.09.13 11.31 BLACKHOLE2 vs v666DRAKON666v.rep  13.09.13666DRAKON666336118.32Пост
Реплеи патча 1.04 1v1 2012.12.06 07.54 WLP|SaNDmaN vs TheGeNeRaL^.rep  13.09.13SaNDmaN32377.31Пост
Реплеи патча 1.04 1v1 2013.09.12 20.18 bleyze vs v666DRAKON666v.rep  12.09.13666DRAKON66630170.97Пост
Реплеи патча 1.04 Air Stealth SiZe RaGe Vees vs Laserlock.rep  12.09.13ZaRz393169.87Пост
Реплеи патча 1.04 Sandman GGair.rep  11.09.13OnzaRain32546.84Пост
Реплеи патча 1.04 1v1 2013.09.11 19.31 OnzaRain vs [My]MarkizE.rep  11.09.13SaNDmaN322119.67Пост
Реплеи патча 1.04 1v1 2013.09.11 20.02 Lasso vs TJESTO.rep  11.09.13Lasso32546.26Пост
Реплеи патча 1.04 1v1 2013.09.11 19.24 Ramzes vs Lasso.rep  11.09.13Lasso33548.79Пост
Реплеи патча 1.04 1v1 2013.09.11 16.25 ALEXXXEY.UA vs Salvager(ru).rep  11.09.13Salvager34140.87Пост
Реплеи патча 1.04 JadernoeLeTo.rep  11.09.13OnzaRain340299.90Пост
Реплеи патча 1.04 1v1 2013.09.07 00.42 ALEXXXEY.UA vs OnzaRain.rep  11.09.13ALEXXXEY.UA32489.30Пост
Реплеи патча 1.04 1v1 2013.09.06 23.27 ALEXXXEY.UA vs OnzaRain.rep  11.09.13ALEXXXEY.UA31367.32Пост
Реплеи патча 1.04 1v1 2013.09.11 09.54 ChuPiZ vs oreN.rep  11.09.13Chupiz32162.06Пост
Реплеи патча 1.04 1v1 2013.02.27 14.06 [RUS]`SaNDmaN^ vs [ARM]ZhiG.rep  10.09.13SaNDmaN349205.36Пост
Реплеи патча 1.04 ZHPlayerTox GG.rep  10.09.13OnzaRain33780.96Пост
Номинация: зрелищность & эффектность 1v1 2013.09.09 21.18 T72 vs Sailor Moon.rep  09.09.13(WbG)~SpeC~304152.84Пост
Реплеи патча 1.04 1v1 2013.09.09 18.50 Salvager(ru) vs [My]MarkizE.rep  09.09.13Salvager33866.10Пост
Реплеи патча 1.04 1v1 2013.09.09 18.39 Salvager(ru) vs [My]MarkizE.rep  09.09.13Salvager36446.55Пост
Реплеи патча 1.04 1v1 2013.09.08 21.05 AIR-Z vs minimal.rep  08.09.13AIR-Z34435.42Пост
Реплеи патча 1.04 1v1 2013.09.08 02.49 -DeweRo^ vs Sailor Moon.rep  08.09.13(WbG)~SpeC~34544.21Пост
Реплеи патча 1.04 1v1 2013.09.07 18.30 AIR-Z vs ShikiGami.rep  07.09.13ShikiGami338156.12Пост
Видео 1v1 17.08.2013 16:22 (1.4) SuperVillian vs Donnie BrasCo.rep  07.09.13dark_dante30992.65Пост
Видео 1v1 2013.08.19 20.53 [EvO]CaRLoS^ vs -DruG^ViCt1m.rep  07.09.13dark_dante331190.30Пост
Реплеи патча 1.04 1v1 2013.09.07 14.33 snoreLAX vs v666DRAKON666v.rep  07.09.13666DRAKON66632840.22Пост
Реплеи патча 1.04 1v1 2013.09.07 00.28 Lookman vs Bomb Truck.rep  07.09.13Salvager35758.50Пост
Реплеи патча 1.04 1v1 2013.09.07 00.14 Lookman vs Bomb Truck.rep  07.09.13Salvager36466.25Пост
Реплеи патча 1.04 fuck yeah .rep  06.09.13(WbG)~SpeC~344220.28Пост
Номинация: самый неожиданный hapy end lol.rep  05.09.13(WbG)~SpeC~345108.43Пост
Реплеи патча 1.04 1v1 2013.09.05 19.40 free vs -RoYaL`.rep  05.09.13ZaRz349101.72Пост
Реплеи патча 1.04 2v2 2012.04.30 19.56 ShikiGami Skorp vs Cyclone #6 ZaRz.rep  05.09.13ShikiGami353106.39Пост
Реплеи патча 1.04 2v2 2013.09.05 18.21 Sergemes Lasso vs bionix Temp174.rep  05.09.13Lasso33070.44Пост
Турниры 1v1 2013.09.04 17.28 Lookman vs Roby.rep  04.09.13Lookman29832.56Пост
Турниры 1v1 2013.09.04 17.23 Lookman vs Roby.rep  04.09.13Lookman30324.19Пост
Турниры 1v1 2013.09.04 17.19 Lookman vs Roby.rep  04.09.13Lookman28723.34Пост
Реплеи патча 1.04 1v1 2013.09.04 15.57 ALEXXXEY.UA vs Lookman.rep  04.09.13ALEXXXEY.UA332138.68Пост
Реплеи патча 1.04 Air Inf SiZe RaGe.rep  04.09.13ZaRz366107.57Пост
Реплеи патча 1.04 1v1 2013.09.03 20.29 ALEXXXEY.UA vs 666DRAKON666.rep  03.09.13666DRAKON66633734.63Пост
Реплеи патча 1.04 1v1 2013.09.03 20.17 ALEXXXEY.UA vs 666DRAKON666.rep  03.09.13666DRAKON66632851.15Пост
Реплеи патча 1.04 1v1 2013.09.04 15.09 MegaDeath vs 2ns harga.rep  03.09.13Vitoniz30334136.50Пост
Реплеи патча 1.04 1v1 2013.09.03 12.05 ALEXXXEY.UA vs -CompLex^.rep  03.09.13ALEXXXEY.UA33048.05Пост
Турниры 1v1 2013.09.02 23.02 Salvager RU vs DALLAS.rep  02.09.13Salvager29430.98Пост
Реплеи патча 1.04 2v2 2013.09.02 22.19 AL dark dante vs AVATAR UA hogu(ru).rep  02.09.13dark_dante324386.43Пост
Турниры 1v1 2013.09.02 19.52 AIR-Z vs Muslimun.rep  02.09.13AIR-Z293130.02Пост
Турниры 1v1 2013.09.02 19.29 AIR-Z vs Muslimun.rep  02.09.13AIR-Z305144.40Пост
Турниры 1v1 2013.09.02 18.33 AIR-Z vs Muslimun.rep  02.09.13AIR-Z306118.82Пост
Турниры 1v1 2013.09.02 18.17 AIR-Z vs Muslimun.rep  02.09.13AIR-Z30483.06Пост
Турниры 1v1 2013.09.02 17.46 AIR-Z vs -RoYaL`.rep  02.09.13AIR-Z30117.68Пост
Турниры 1v1 2013.09.02 17.17 AIR-Z vs -RoYaL`.rep  02.09.13AIR-Z291147.08Пост
Турниры 1v1 2013.09.02 17.07 AIR-Z vs -RoYaL`.rep  02.09.13AIR-Z30050.56Пост
Турниры 1v1 2013.09.02 16.48 AIR-Z vs -RoYaL`.rep  02.09.13AIR-Z30289.66Пост
Реплеи патча 1.04 1v1 2013.09.02 15.33 ALEXXXEY.UA vs ChuPiZ.rep  02.09.13ALEXXXEY.UA31386.25Пост
Реплеи патча 1.04 1v1 2013.09.02 15.51 ALEXXXEY.UA vs ChuPiZ.rep  02.09.13ALEXXXEY.UA31995.70Пост
Реплеи патча 1.04 1v1 2013.09.02 20.15 MegaDeath vs pasha-cb03ce.rep  01.09.13Vitoniz3032136.62Пост
Реплеи патча 1.04 1v1 2013.04.28 00.13 ZaRz vs -|AzraiL|-.rep  01.09.13ZaRz358120.56Пост
Турниры 1v1 28.08.2013 22:52 (1.4) Mangust vs I`amTATAR.rep  30.08.13Mangust30017.60Пост
Турниры 1v1 28.08.2013 22:40 (1.4) Mangust vs I`amTATAR.rep  30.08.13Mangust30148.14Пост
Турниры 1v1 28.08.2013 22:18 (1.4) Mangust vs I`amTATAR.rep  30.08.13Mangust31195.42Пост
Турниры 1v1 28.08.2013 22:03 (1.4) Mangust vs I`amTATAR.rep  30.08.13Mangust29975.50Пост
Реплеи патча 1.04 1v1 2013.08.30 17.23 ALEXXXEY.UA vs Vitalik.UA.rep  30.08.13ALEXXXEY.UA353266.71Пост
Реплеи патча 1.04 1v1 2013.08.30 00.40 ALEXXXEY.UA vs Vitalik.UA.rep  30.08.13ALEXXXEY.UA342146.98Пост
Реплеи патча 1.04 1v1 2013.08.29 22.40 -DeweRo^ vs -Rob^xD`.rep  30.08.13-Rob^xD`401180.23Пост
Реплеи патча 1.04 1v1 2013.08.29 23.43 -DeweRo^ vs VeilSiDe.rep  30.08.13ZaRz341121.83Пост
Реплеи патча 1.04 1v1 2013.08.29 15.28 ALEXXXEY.UA vs PuYanG.rep  29.08.13ALEXXXEY.UA34979.87Пост
Реплеи патча 1.04 1v1 2013.08.29 12.40 ALEXXXEY.UA vs ChuPiZ.rep  29.08.13ALEXXXEY.UA32931.07Пост
Реплеи патча 1.04 1v1 2013.08.29 11.55 ALEXXXEY.UA vs ChuPiZ.rep  29.08.13ALEXXXEY.UA34027.26Пост
Реплеи патча 1.04 1v1 2013.08.29 11.37 ALEXXXEY.UA vs ChuPiZ.rep  29.08.13ALEXXXEY.UA31556.03Пост
Реплеи патча 1.04 1v1 2013.08.29 12.02 ALEXXXEY.UA vs ChuPiZ.rep  29.08.13ALEXXXEY.UA337148.28Пост
Реплеи патча 1.04 2v2 2013.08.29 10.27 Sergemes Lasso vs BARON GeneralsRus.rep  29.08.13Sergemes362134.76Пост
Номинация: зрелищность & эффектность 1v1 2013.07.20 15.27 ""ONZAjr"" vs [SF]GanG.rep  29.08.13SaNDmaN330109.35Пост
Реплеи патча 1.04 1v1 2013.08.29 11.17 GeneralsRus vs Lasso.rep  29.08.13Lasso34127.96Пост
Турниры 1v1 2013.08.27 19.41 Lookman vs -Rob^xD`.rep  28.08.13-Rob^xD`30324.96Пост
Турниры 1v1 2013.08.27 19.28 Lookman vs -Rob^xD`.rep  28.08.13-Rob^xD`30464.95Пост
Турниры 1v1 2013.08.27 19.18 Lookman vs -Rob^xD`.rep  28.08.13-Rob^xD`30336.94Пост
Турниры 1v1 2013.08.27 19.01 Lookman vs -Rob^xD`.rep  28.08.13-Rob^xD`31575.56Пост
Турниры 1v1 2013.08.27 19.47 Lookman vs -Rob^xD`.rep  28.08.13-Rob^xD`30929.06Пост
Реплеи патча 1.04 2v2 2013.08.28 14.25 Pendalf Alegator vs Sergemes Lasso.rep  28.08.13Sergemes351205.60Пост
Реплеи патча 1.04 1v1 2013.08.27 22.26 ALEXXXEY.UA vs MTK.rep  28.08.13ALEXXXEY.UA345341.82Пост
Реплеи патча 1.04 2v2 2013.08.28 13.05 BBU Vitalik.UA vs LG 228 Lasso.rep  28.08.13Sergemes355271.83Пост
Реплеи патча 1.04 1v1 2013.08.27 13.19 SPB|Muslimun vs [ZH]TroLL.rep  28.08.13Muslimun225132.51Пост
 
 

© Портал Generals Zero Hour

Сайт оптимизирован под разрешение 1280x1024.
Любое копирование запрещено! | Статьи про игры | Работает при поддержке www.cncseries.ru